Weather History for Lancaster, SC

Change the Weather History Date:

Wednesday, March 27, 2013

  Actual Average (KUZA) Record (KUZA)
Temperature  
Mean Temperature 40 °F -  
Max Temperature 55 °F 64 °F 84 °F (1956)
Min Temperature 26 °F 42 °F 18 °F (1955)
Degree Days  
Heating Degree Days 24    
Moisture  
Dew Point 23 °F    
Average Humidity 52    
Maximum Humidity 93    
Minimum Humidity 25    
Precipitation  
Precipitation 0.00 in - - ()
Sea Level Pressure  
Sea Level Pressure 30.22 in    
Wind  
Wind Speed 5 mph (NW)    
Max Wind Speed 10 mph    
Max Gust Speed 18 mph    
Visibility 10 miles    
Events      
Averages and records for this station are not official NWS values.
T = Trace of Precipitation, MM = Missing Value Source: NWS Daily Summary

Daily Weather History Graph

Daily Weather History Graph

Search for Another Location

Airport:

Trip Planner

Search our weather history database for the weather conditions in past years. The results will help you decide how hot, cold, wet, or windy it might be!

Date:

Astronomy

Mar. 27, 2013 Rise Set
Actual Time 7:16 AM EDT 7:40 PM EDT
Civil Twilight 6:51 AM EDT 8:06 PM EDT
Nautical Twilight 6:22 AM EDT 8:35 PM EDT
Astronomical Twilight 5:52 AM EDT 9:06 PM EDT
Moon 8:19 PM EDT (3/27) 7:09 AM EDT (3/27)
Length of Visible Light 13h 14m
Length of Day
12h 23m
Full, 100% of the Moon is Illuminated
Mar 27
Full
Apr 3
Last Quarter
Apr 10
New
Apr 18
First Quarter
Apr 25
Full

Hourly Weather History & Observations

Time (EDT) Temp. Windchill Dew Point Humidity Pressure Visibility Wind Dir Wind Speed Gust Speed Precip Events Conditions
12:15 AM 37.4 °F 32.8 °F 23.0 °F 56% 30.18 in 10.0 mi NNW 5.8 mph - N/A   Clear
12:35 AM 37.4 °F 32.8 °F 23.0 °F 56% 30.19 in 10.0 mi North 5.8 mph - N/A   Clear
12:55 AM 37.4 °F 32.1 °F 23.0 °F 56% 30.19 in 10.0 mi North 6.9 mph - N/A   Clear
1:15 AM 37.4 °F 32.8 °F 23.0 °F 56% 30.19 in 10.0 mi NNW 5.8 mph - N/A   Clear
1:35 AM 35.6 °F 32.8 °F 23.0 °F 60% 30.19 in 10.0 mi NNW 3.5 mph - N/A   Clear
2:15 AM 33.8 °F - 24.8 °F 70% 30.19 in 10.0 mi Calm Calm - N/A   Clear
2:35 AM 32.0 °F 28.7 °F 23.0 °F 69% 30.19 in 10.0 mi WNW 3.5 mph - N/A   Clear
2:55 AM 32.0 °F 28.7 °F 23.0 °F 69% 30.20 in 10.0 mi WNW 3.5 mph - N/A   Clear
3:15 AM 32.0 °F 28.7 °F 23.0 °F 69% 30.20 in 10.0 mi WNW 3.5 mph - N/A   Clear
3:35 AM 32.0 °F - 23.0 °F 69% 30.20 in 10.0 mi Calm Calm - N/A   Clear
3:55 AM 32.0 °F 28.7 °F 23.0 °F 69% 30.19 in 10.0 mi WNW 3.5 mph - N/A   Clear
4:15 AM 32.0 °F - 21.2 °F 64% 30.19 in 10.0 mi Calm Calm - N/A   Clear
4:35 AM 32.0 °F 28.7 °F 21.2 °F 64% 30.19 in 10.0 mi WNW 3.5 mph - N/A   Clear
4:55 AM 32.0 °F 28.7 °F 21.2 °F 64% 30.19 in 10.0 mi WNW 3.5 mph - N/A   Clear
5:15 AM 32.0 °F - 21.2 °F 64% 30.19 in 10.0 mi Calm Calm - N/A   Clear
5:35 AM 32.0 °F 28.7 °F 21.2 °F 64% 30.20 in 10.0 mi WNW 3.5 mph - N/A   Clear
5:55 AM 32.0 °F 28.7 °F 21.2 °F 64% 30.20 in 10.0 mi WNW 3.5 mph - N/A   Clear
6:15 AM 28.4 °F 23.3 °F 23.0 °F 80% 30.21 in 10.0 mi WNW 4.6 mph - N/A   Clear
6:35 AM 30.2 °F 26.7 °F 23.0 °F 75% 30.21 in 10.0 mi NW 3.5 mph - N/A   Clear
6:55 AM 28.4 °F - 23.0 °F 80% 30.22 in 10.0 mi Calm Calm - N/A   Clear
7:15 AM 26.6 °F 21.2 °F 23.0 °F 86% 30.23 in 10.0 mi WNW 4.6 mph - N/A   Clear
7:35 AM 26.6 °F 21.2 °F 24.8 °F 93% 30.24 in 10.0 mi WNW 4.6 mph - N/A   Clear
7:55 AM 28.4 °F 23.3 °F 23.0 °F 80% 30.24 in 10.0 mi WNW 4.6 mph - N/A   Clear
8:15 AM 30.2 °F 26.7 °F 23.0 °F 75% 30.25 in 10.0 mi WNW 3.5 mph - N/A   Clear
8:35 AM 32.0 °F 27.5 °F 23.0 °F 69% 30.25 in 10.0 mi WNW 4.6 mph - N/A   Clear
8:55 AM 33.8 °F 30.8 °F 26.6 °F 75% 30.26 in 10.0 mi WNW 3.5 mph - N/A   Clear
9:15 AM 37.4 °F 31.4 °F 24.8 °F 60% 30.27 in 10.0 mi WNW 8.1 mph - N/A   Clear
9:35 AM 39.2 °F 35.0 °F 23.0 °F 52% 30.27 in 10.0 mi WNW 5.8 mph - N/A   Clear
9:55 AM 41.0 °F 36.4 °F 23.0 °F 49% 30.27 in 10.0 mi NW 6.9 mph - N/A   Clear
10:15 AM 44.6 °F 39.7 °F 23.0 °F 43% 30.27 in 10.0 mi NW 9.2 mph - N/A   Clear
10:35 AM 44.6 °F 40.2 °F 23.0 °F 43% 30.27 in 10.0 mi NNW 8.1 mph - N/A   Clear
10:55 AM 44.6 °F 43.1 °F 21.2 °F 39% 30.26 in 10.0 mi North 3.5 mph - N/A   Clear
11:15 AM 46.4 °F 42.4 °F 23.0 °F 40% 30.27 in 10.0 mi North 8.1 mph - N/A   Clear
11:35 AM 46.4 °F 42.4 °F 21.2 °F 37% 30.27 in 10.0 mi WNW 8.1 mph - N/A   Clear
11:55 AM 46.4 °F 43.5 °F 23.0 °F 40% 30.27 in 10.0 mi NW 5.8 mph - N/A   Clear
12:15 PM 48.2 °F - 23.0 °F 37% 30.26 in 10.0 mi West 10.4 mph - N/A   Clear
12:35 PM 48.2 °F - 19.4 °F 32% 30.26 in 10.0 mi NNW 10.4 mph - N/A   Clear
12:55 PM 48.2 °F - 23.0 °F 37% 30.25 in 10.0 mi SW 6.9 mph 18.4 mph N/A   Clear
1:15 PM 48.2 °F - 19.4 °F 32% 30.25 in 10.0 mi WNW 5.8 mph - N/A   Clear
1:35 PM 48.2 °F - 23.0 °F 37% 30.24 in 10.0 mi SW 4.6 mph - N/A   Clear
1:55 PM 50.0 °F - 19.4 °F 30% 30.24 in 10.0 mi WNW 5.8 mph - N/A   Clear
2:15 PM 50.0 °F - 21.2 °F 32% 30.23 in 10.0 mi West 8.1 mph - N/A   Clear
2:35 PM 51.8 °F - 24.8 °F 35% 30.22 in 10.0 mi WNW 10.4 mph - N/A   Clear
2:55 PM 53.6 °F - 23.0 °F 30% 30.22 in 10.0 mi NW 5.8 mph 18.4 mph N/A   Clear
3:15 PM 53.6 °F - 24.8 °F 33% 30.21 in 10.0 mi WSW 8.1 mph - N/A   Clear
3:35 PM 53.6 °F - 23.0 °F 30% 30.20 in 10.0 mi WSW 9.2 mph 18.4 mph N/A   Clear
3:55 PM 53.6 °F - 21.2 °F 28% 30.19 in 10.0 mi Calm Calm - N/A   Clear
4:15 PM 53.6 °F - 21.2 °F 28% 30.19 in 10.0 mi WNW 8.1 mph - N/A   Clear
4:35 PM 55.4 °F - 19.4 °F 25% 30.19 in 10.0 mi Calm Calm - N/A   Clear
4:55 PM 55.4 °F - 21.2 °F 26% 30.18 in 10.0 mi NW 3.5 mph 18.4 mph N/A   Clear
5:15 PM 55.4 °F - 23.0 °F 29% 30.18 in 10.0 mi West 6.9 mph - N/A   Clear
5:35 PM 55.4 °F - 19.4 °F 25% 30.18 in 10.0 mi West 5.8 mph - N/A   Clear
6:15 PM 53.6 °F - 19.4 °F 26% 30.18 in 10.0 mi West 8.1 mph - N/A   Clear
6:35 PM 53.6 °F - 19.4 °F 26% 30.17 in 10.0 mi West 5.8 mph - N/A   Clear
6:55 PM 53.6 °F - 19.4 °F 26% 30.18 in 10.0 mi WNW 4.6 mph - N/A   Clear
7:15 PM 53.6 °F - 19.4 °F 26% 30.18 in 10.0 mi WNW 5.8 mph - N/A   Clear
7:35 PM 50.0 °F - 24.8 °F 37% 30.19 in 10.0 mi NW 3.5 mph - N/A   Clear
7:55 PM 46.4 °F - 30.2 °F 53% 30.20 in 10.0 mi Calm Calm - N/A   Clear
8:15 PM 41.0 °F - 32.0 °F 70% 30.20 in 10.0 mi Calm Calm - N/A   Clear
8:35 PM 39.2 °F - 30.2 °F 70% 30.21 in 10.0 mi Calm Calm - N/A   Clear
8:55 PM 39.2 °F 35.0 °F 26.6 °F 61% 30.22 in 10.0 mi North 5.8 mph - N/A   Clear
9:15 PM 39.2 °F 37.0 °F 26.6 °F 61% 30.22 in 10.0 mi NNE 3.5 mph - N/A   Clear
9:35 PM 39.2 °F 35.0 °F 24.8 °F 56% 30.23 in 10.0 mi North 5.8 mph - N/A   Clear
9:55 PM 39.2 °F 37.0 °F 26.6 °F 61% 30.23 in 10.0 mi NNE 3.5 mph - N/A   Clear
10:15 PM 37.4 °F 33.8 °F 24.8 °F 60% 30.24 in 10.0 mi NNE 4.6 mph - N/A   Clear
10:35 PM 41.0 °F 38.0 °F 21.2 °F 45% 30.24 in 10.0 mi North 4.6 mph - N/A   Clear
10:55 PM 35.6 °F - 26.6 °F 70% 30.25 in 10.0 mi Calm Calm - N/A   Clear
11:15 PM 39.2 °F 35.0 °F 21.2 °F 49% 30.25 in 10.0 mi North 5.8 mph - N/A   Clear
11:35 PM 37.4 °F 32.8 °F 21.2 °F 52% 30.26 in 10.0 mi North 5.8 mph - N/A   Clear
11:55 PM 35.6 °F 32.8 °F 24.8 °F 65% 30.26 in 10.0 mi NNE 3.5 mph - N/A   Clear